DW9837 Weather Reports


Display with metric or nautical units.
time (UTC)temp
F
wind
direction
speed
MPH
gust
MPH
rain 1hr
in
rain 24hr
in
rain mn
in
humidity
%
barometer
mb
20260906000045 67 80 0.0 2.0 0.00 0.00 0.00 88 1011.7
20260905234543 67 161 0.0 0.0 0.00 0.00 0.00 88 1011.4
20260905233044 67 161 0.0 0.0 0.00 0.00 0.00 86 1011.3
20260905231540 68 137 0.0 1.0 0.00 0.00 0.00 86 1011.2
20260905230048 68 178 1.0 2.0 0.00 0.00 0.00 85 1011.0
20260905224557 68 144 0.0 3.0 0.00 0.00 0.00 84 1011.2
20260905223037 69 182 1.0 5.0 0.00 0.00 0.00 84 1011.0
20260905221547 69 148 0.0 4.0 0.00 0.00 0.00 83 1011.0
20260905220040 70 156 2.0 5.0 0.00 0.00 0.00 84 1011.0
20260905214534 69 96 3.0 6.0 0.00 0.00 0.00 83 1010.8
20260905213032 70 272 2.0 5.0 0.00 0.00 0.00 82 1010.5
20260905211530 71 226 1.0 4.0 0.00 0.00 0.00 79 1010.4
20260905210029 72 142 1.0 4.0 0.00 0.00 0.00 75 1010.2
20260905204527 74 236 2.0 6.0 0.00 0.00 0.00 70 1009.9
20260905203028 74 184 3.0 9.0 0.00 0.00 0.00 66 1009.8
20260905201526 72 121 2.0 5.0 0.00 0.00 0.00 71 1009.7
20260905200026 73 227 2.0 7.0 0.00 0.00 0.00 73 1009.7
20260905194524 73 113 0.0 5.0 0.00 0.00 0.00 74 1009.6
20260905193027 73 176 2.0 6.0 0.00 0.00 0.00 73 1009.6
20260905191523 74 151 3.0 7.0 0.00 0.00 0.00 69 1009.6
20260905190022 75 105 2.0 5.0 0.00 0.00 0.00 69 1009.3
20260905184525 78 107 1.0 6.0 0.00 0.00 0.00 59 1009.4
20260905183020 78 72 2.0 7.0 0.00 0.00 0.00 61 1009.4
20260905181519 76 158 1.0 8.0 0.00 0.00 0.00 64 1009.6
20260905180018 76 47 1.0 5.0 0.00 0.00 0.00 65 1009.6
20260905174521 77 102 1.0 7.0 0.00 0.00 0.00 62 1009.5
20260905173024 78 92 2.0 6.0 0.00 0.00 0.00 60 1009.4
20260905171524 80 21 1.0 6.0 0.00 0.00 0.00 56 1009.2
20260905170012 79 37 0.0 8.0 0.00 0.00 0.00 58 1009.2
20260905164511 80 11 1.0 5.0 0.00 0.00 0.00 57 1009.1
20260905163010 79 313 1.0 6.0 0.00 0.00 0.00 60 1009.2
20260905161508 80 9 1.0 4.0 0.00 0.00 0.00 60 1009.1
20260905160137 78 102 1.0 9.0 0.00 0.00 0.00 61 1009.1
20260905154504 78 53 2.0 9.0 0.00 0.00 0.00 63 1009.1
20260905153002 77 349 0.0 3.0 0.00 0.00 0.00 62 1009.1
20260905151607 77 47 3.0 10.0 0.00 0.00 0.00 64 1009.2
20260905150058 77 5 1.0 7.0 0.00 0.00 0.00 63 1009.0
20260905144558 76 9 0.0 3.0 0.00 0.00 0.00 63 1008.8
20260905143055 76 58 1.0 5.0 0.00 0.00 0.00 63 1008.9
20260905141552 75 82 1.0 7.0 0.00 0.00 0.00 65 1009.0
20260905140049 75 141 1.0 8.0 0.00 0.00 0.00 65 1009.1
20260905134545 74 59 1.0 6.0 0.00 0.00 0.00 66 1009.2
20260905133043 74 33 1.0 4.0 0.00 0.00 0.00 66 1009.1
20260905131540 73 53 0.0 5.0 0.00 0.00 0.00 68 1009.2
20260905130037 73 37 0.0 3.0 0.00 0.00 0.00 71 1009.3
20260905124539 71 341 0.0 2.0 0.00 0.00 0.00 71 1009.5
20260905123028 70 39 0.0 2.0 0.00 0.00 0.00 74 1009.5
20260905121525 68 19 0.0 2.0 0.00 0.00 0.00 76 1009.4
20260905120023 67 37 0.0 1.0 0.00 0.00 0.00 80 1009.3
20260905114523 66 105 0.0 1.0 0.00 0.00 0.00 81 1009.3
20260905113022 65 51 0.0 0.0 0.00 0.00 0.00 85 1009.1
20260905111520 63 51 0.0 0.0 0.00 0.00 0.00 88 1009.0
20260905110019 62 50 0.0 0.0 0.00 0.00 0.00 90 1009.0
20260905104517 62 50 0.0 0.0 0.00 0.00 0.00 90 1008.9
20260905103022 61 50 0.0 0.0 0.00 0.00 0.00 90 1008.8
20260905101512 61 50 0.0 0.0 0.00 0.00 0.00 90 1008.5
20260905100010 62 50 0.0 0.0 0.00 0.00 0.00 89 1008.7
20260905094609 62 50 0.0 0.0 0.00 0.36 0.00 89 1008.5
20260905093007 62 50 0.0 0.0 0.00 0.36 0.00 88 1008.4
20260905091511 62 50 0.0 0.0 0.00 0.36 0.00 88 1008.4
20260905090003 63 50 0.0 0.0 0.00 0.38 0.00 87 1008.5
20260905084609 63 50 0.0 0.0 0.00 0.38 0.00 87 1008.4
20260905083059 63 50 0.0 0.0 0.00 0.38 0.00 87 1008.4
20260905081559 63 50 0.0 0.0 0.00 0.38 0.00 86 1008.5
20260905080059 64 50 0.0 0.0 0.00 0.38 0.00 85 1008.4
20260905074556 64 50 0.0 0.0 0.00 0.38 0.00 84 1008.3
20260905073058 65 50 0.0 0.0 0.00 0.38 0.00 84 1008.4
20260905071551 65 50 0.0 1.0 0.00 0.38 0.00 83 1008.5
20260905070047 66 50 0.0 0.0 0.00 0.38 0.00 81 1008.7
20260905064545 66 50 0.0 0.0 0.00 0.38 0.00 80 1008.8
20260905063043 67 51 0.0 0.0 0.00 0.38 0.00 80 1008.8
20260905061602 67 50 0.0 0.0 0.00 0.38 0.00 78 1008.8
20260905060039 68 50 0.0 0.0 0.00 0.38 0.00 77 1009.1
20260905054538 67 75 0.0 0.0 0.00 0.38 0.00 79 1009.2
20260905053037 68 75 0.0 0.0 0.00 0.38 0.00 78 1009.2
20260905051539 67 75 0.0 0.0 0.00 0.38 0.00 79 1009.3
20260905050037 68 75 0.0 0.0 0.00 0.38 0.00 77 1009.3
20260905044535 68 75 0.0 0.0 0.00 0.38 0.00 77 1009.4
20260905043031 68 75 0.0 0.0 0.00 0.38 0.00 76 1009.6
20260905041531 68 75 0.0 0.0 0.00 0.38 0.00 77 1009.6
20260905040031 68 75 0.0 1.0 0.00 0.38 0.00 78 1009.5
20260905034526 68 295 0.0 1.0 0.00 0.38 0.38 79 1009.6
20260905033031 67 295 0.0 0.0 0.00 0.38 0.38 80 1009.5
20260905031524 68 295 0.0 1.0 0.00 0.38 0.38 80 1009.4
20260905030034 68 295 0.0 1.0 0.00 0.38 0.38 80 1009.4
20260905024521 68 297 0.0 0.0 0.00 0.38 0.38 80 1009.5
20260905023022 69 296 0.0 1.0 0.00 0.38 0.38 79 1009.6
20260905021523 69 296 0.0 1.0 0.00 0.38 0.38 78 1009.5
20260905020016 70 151 0.0 1.0 0.00 0.38 0.38 77 1009.5
20260905014521 70 151 0.0 0.0 0.00 0.38 0.38 77 1009.4
20260905013014 71 151 0.0 1.0 0.00 0.38 0.38 75 1009.6
20260905011513 71 331 0.0 0.0 0.00 0.38 0.38 76 1009.7
20260905010016 72 265 0.0 1.0 0.00 0.38 0.38 75 1009.8
20260905004516 72 298 0.0 1.0 0.00 0.38 0.38 74 1010.0
20260905003018 73 274 0.0 0.0 0.00 0.38 0.38 72 1010.0
20260905001531 73 267 0.0 3.0 0.00 0.38 0.38 72 1009.8